SAS2994 LGIR-EKCH

Flight info

Callsign SAS2994
Flight time N/A
Altitude 36000
Route EPALO UM749 ATV DCT TALAS DCT LONTA UM749 UDVAR DCT PARAK/N0452F380 DCT AMRAX DCT REGLI DCT DENKO L996 GOSOT DCT ROE M743 TIDVU
Aircraft A320/M-SDE3FGHIRWY/LB1

Departure

Time 2026-05-01 12:45
Airport Heraklion International Nikos Kazantzakis Airport (LGIR)

Arrival

Time N/A
Airport Copenhagen Kastrup Airport (EKCH)
Time Latitude Longitude Altitude Speed Heading
2026-05-01 12:07 35.33813 25.17538 91 ft 0 kts 317°
2026-05-01 12:40 35.33822 25.17528 91 ft 3 kts 317°
2026-05-01 12:40 35.33844 25.17503 91 ft 6 kts 317°
2026-05-01 12:40 35.33888 25.17499 91 ft 8 kts
2026-05-01 12:40 35.33909 25.17553 91 ft 9 kts 94°
2026-05-01 12:41 35.33904 25.17634 91 ft 10 kts 95°
2026-05-01 12:41 35.33898 25.17728 92 ft 12 kts 95°
2026-05-01 12:41 35.33890 25.17836 92 ft 14 kts 95°
2026-05-01 12:41 35.33881 25.17967 93 ft 17 kts 95°
2026-05-01 12:42 35.33869 25.18125 94 ft 20 kts 96°
2026-05-01 12:42 35.33857 25.18300 92 ft 22 kts 94°
2026-05-01 12:42 35.33846 25.18492 90 ft 24 kts 94°
2026-05-01 12:42 35.33831 25.18679 92 ft 23 kts 95°
2026-05-01 12:43 35.33820 25.18842 91 ft 14 kts 95°
2026-05-01 12:43 35.33828 25.18944 93 ft 11 kts 59°
2026-05-01 12:43 35.33884 25.19013 88 ft 12 kts
2026-05-01 12:43 35.33912 25.18951 87 ft 0 kts 274°
2026-05-01 12:44 35.33912 25.18949 87 ft 1 kts 274°
2026-05-01 12:44 35.33964 25.18166 93 ft 109 kts 275°
2026-05-01 12:45 35.34140 25.15678 636 ft 160 kts 277°
2026-05-01 12:45 35.34511 25.14366 1193 ft 177 kts 306°
2026-05-01 12:45 35.35548 25.13337 1275 ft 212 kts 335°
2026-05-01 12:46 35.37060 25.12675 1444 ft 245 kts 344°
2026-05-01 12:46 35.38746 25.12134 2189 ft 252 kts 347°
2026-05-01 12:46 35.40446 25.11694 3251 ft 250 kts 348°
2026-05-01 12:46 35.42169 25.11258 4061 ft 256 kts 346°
2026-05-01 12:47 35.43927 25.10773 4861 ft 263 kts 344°
2026-05-01 12:47 35.45723 25.10227 5633 ft 269 kts 342°
2026-05-01 12:47 35.47541 25.09633 6631 ft 270 kts 341°
2026-05-01 12:47 35.49352 25.09014 7564 ft 275 kts 339°
2026-05-01 12:48 35.51198 25.08362 8475 ft 278 kts 339°
2026-05-01 12:48 35.53067 25.07690 9316 ft 280 kts 339°
2026-05-01 12:48 35.54947 25.07012 10121 ft 283 kts 339°
2026-05-01 12:48 35.56878 25.06313 10514 ft 300 kts 339°
2026-05-01 12:49 35.58956 25.05553 10678 ft 322 kts 339°
2026-05-01 12:49 35.61153 25.04754 11111 ft 334 kts 339°
2026-05-01 12:49 35.63405 25.03946 11744 ft 338 kts 339°
2026-05-01 12:49 35.65677 25.03134 12431 ft 342 kts 339°
2026-05-01 12:50 35.67974 25.02312 13112 ft 345 kts 339°
2026-05-01 12:50 35.70282 25.01484 13800 ft 348 kts 339°
2026-05-01 12:50 35.72610 25.00607 14408 ft 350 kts 336°
2026-05-01 12:50 35.74903 24.99606 15001 ft 351 kts 334°
2026-05-01 12:51 35.77189 24.98520 15581 ft 353 kts 333°
2026-05-01 12:51 35.79479 24.97398 16169 ft 355 kts 332°
2026-05-01 12:51 35.84111 24.95136 17339 ft 361 kts 333°
2026-05-01 12:52 35.86463 24.94011 17930 ft 364 kts 333°
2026-05-01 12:52 35.91230 24.91754 19054 ft 369 kts 332°
2026-05-01 12:52 35.93638 24.90621 19624 ft 371 kts 332°
2026-05-01 12:53 35.98487 24.88341 20804 ft 375 kts 332°
2026-05-01 12:53 36.00929 24.87188 21362 ft 377 kts 331°
2026-05-01 12:53 36.03382 24.86028 21908 ft 378 kts 331°
2026-05-01 12:54 36.05845 24.84860 22435 ft 380 kts 331°
2026-05-01 12:54 36.10800 24.82515 23472 ft 383 kts 330°
2026-05-01 12:54 36.13302 24.81331 23909 ft 385 kts 330°
2026-05-01 12:55 36.18326 24.78952 24734 ft 388 kts 330°
2026-05-01 12:55 36.20850 24.77751 25130 ft 389 kts 330°
2026-05-01 12:55 36.23384 24.76545 25549 ft 391 kts 330°
2026-05-01 12:56 36.25921 24.75339 25938 ft 392 kts 330°
2026-05-01 12:56 36.28445 24.74140 26314 ft 394 kts 330°
2026-05-01 12:56 36.31040 24.72906 26697 ft 395 kts 330°
2026-05-01 12:56 36.33576 24.71698 27065 ft 396 kts 330°
2026-05-01 12:57 36.36147 24.70470 27436 ft 398 kts 329°
2026-05-01 12:57 36.41334 24.67988 28171 ft 400 kts 329°
2026-05-01 12:57 36.43939 24.66740 28538 ft 402 kts 329°
2026-05-01 12:58 36.46553 24.65486 28886 ft 403 kts 329°
2026-05-01 12:58 36.49177 24.64230 29295 ft 405 kts 329°
2026-05-01 12:58 36.51805 24.62973 29738 ft 404 kts 329°
2026-05-01 12:59 36.57021 24.60485 30680 ft 399 kts 329°
2026-05-01 12:59 36.59611 24.59248 31092 ft 398 kts 329°
2026-05-01 12:59 36.64755 24.56778 31892 ft 395 kts 328°
2026-05-01 13:00 36.69880 24.54299 32717 ft 393 kts 328°
2026-05-01 13:00 36.72428 24.53069 33179 ft 392 kts 328°
2026-05-01 13:01 36.77358 24.50352 34012 ft 384 kts 323°
2026-05-01 13:01 36.78943 24.49376 34246 ft 383 kts 323°
2026-05-01 13:01 36.83716 24.46430 34860 ft 382 kts 323°
2026-05-01 13:02 36.86099 24.44955 35144 ft 382 kts 323°
2026-05-01 13:07 37.37507 24.12933 36132 ft 398 kts 323°
2026-05-01 13:07 37.39979 24.11386 36137 ft 398 kts 323°
2026-05-01 13:08 37.44933 24.08277 36137 ft 398 kts 323°
2026-05-01 13:08 37.49889 24.05159 36170 ft 398 kts 323°
2026-05-01 13:09 37.54846 24.02028 36144 ft 398 kts 323°
2026-05-01 13:09 37.59796 23.98904 36152 ft 398 kts 323°
2026-05-01 13:10 37.64753 23.95772 36155 ft 399 kts 323°
2026-05-01 13:10 37.69686 23.92648 36165 ft 399 kts 323°
2026-05-01 13:11 37.74652 23.89494 36200 ft 399 kts 323°
2026-05-01 13:11 37.79615 23.86346 36197 ft 400 kts 323°
2026-05-01 13:12 37.84585 23.83186 36188 ft 399 kts 323°
2026-05-01 13:12 37.89556 23.80020 36191 ft 400 kts 323°
2026-05-01 13:13 37.94639 23.77064 36183 ft 404 kts 326°
2026-05-01 13:13 37.99801 23.74233 36211 ft 404 kts 326°
2026-05-01 13:14 38.04958 23.71380 36190 ft 404 kts 326°
2026-05-01 13:14 38.10098 23.68477 36184 ft 404 kts 326°
2026-05-01 13:15 38.15230 23.65548 36181 ft 404 kts 326°
2026-05-01 13:15 38.20362 23.62625 36184 ft 405 kts 326°
2026-05-01 13:16 38.25509 23.59702 36186 ft 405 kts 326°
2026-05-01 13:16 38.30652 23.56767 36187 ft 405 kts 326°
2026-05-01 13:17 38.40939 23.50897 36188 ft 405 kts 326°
2026-05-01 13:18 38.48656 23.46471 36237 ft 405 kts 326°
2026-05-01 13:18 38.53796 23.43522 36199 ft 405 kts 326°
2026-05-01 13:19 38.58937 23.40575 36208 ft 405 kts 326°
2026-05-01 13:20 38.66644 23.36125 36207 ft 405 kts 326°
2026-05-01 13:20 38.71792 23.33151 36209 ft 405 kts 326°
2026-05-01 13:21 38.79510 23.28690 36196 ft 406 kts 327°
2026-05-01 13:21 38.84667 23.25702 36195 ft 407 kts 326°
2026-05-01 13:22 38.89805 23.22718 36201 ft 408 kts 326°
2026-05-01 13:22 38.94976 23.19712 36204 ft 408 kts 326°
2026-05-01 13:23 39.00155 23.16705 36231 ft 409 kts 327°
2026-05-01 13:23 39.05335 23.13678 36234 ft 409 kts 327°
2026-05-01 13:24 39.10520 23.10642 36254 ft 410 kts 327°
2026-05-01 13:25 39.18315 23.06087 36254 ft 410 kts 327°
2026-05-01 13:25 39.23517 23.03044 36264 ft 411 kts 327°
2026-05-01 13:26 39.28726 22.99984 36258 ft 412 kts 327°
2026-05-01 13:26 39.33946 22.96913 36252 ft 412 kts 327°
2026-05-01 13:27 39.39137 22.93852 36225 ft 413 kts 327°
2026-05-01 13:27 39.46974 22.89222 36247 ft 413 kts 327°
2026-05-01 13:28 39.54837 22.84556 36222 ft 415 kts 327°
2026-05-01 13:29 39.65368 22.78317 36211 ft 417 kts 327°
2026-05-01 13:31 39.81235 22.68842 36218 ft 420 kts 328°
2026-05-01 13:32 39.94533 22.60881 36244 ft 421 kts 329°
2026-05-01 13:33 40.07884 22.52845 36239 ft 423 kts 329°
2026-05-01 13:34 40.18582 22.46392 36268 ft 424 kts 329°
2026-05-01 13:35 40.26632 22.41513 36245 ft 425 kts 329°
2026-05-01 13:36 40.34698 22.36615 36243 ft 426 kts 329°
2026-05-01 13:36 40.42729 22.31740 36241 ft 427 kts 330°
2026-05-01 13:37 40.48122 22.28439 36239 ft 427 kts 329°
2026-05-01 13:37 40.53510 22.25128 36243 ft 428 kts 329°
2026-05-01 13:38 40.61607 22.20166 36241 ft 428 kts 330°
2026-05-01 13:39 40.67008 22.16856 36221 ft 428 kts 329°
2026-05-01 13:39 40.72411 22.13527 36232 ft 428 kts 329°
2026-05-01 13:40 40.77809 22.10198 36219 ft 428 kts 330°
2026-05-01 13:40 40.83212 22.06859 36222 ft 429 kts 330°
2026-05-01 13:41 40.88612 22.03515 36229 ft 429 kts 330°
2026-05-01 13:41 40.94026 22.00163 36223 ft 430 kts 330°
2026-05-01 13:42 40.99445 21.96810 36216 ft 430 kts 330°
2026-05-01 13:42 41.04863 21.93443 36223 ft 430 kts 330°
2026-05-01 13:43 41.10369 21.90401 36235 ft 434 kts 336°
2026-05-01 13:43 41.16061 21.87706 36226 ft 435 kts 336°
2026-05-01 13:44 41.21760 21.85013 36220 ft 435 kts 336°
2026-05-01 13:44 41.27458 21.82310 36220 ft 435 kts 336°
2026-05-01 13:45 41.33163 21.79601 36238 ft 435 kts 336°
2026-05-01 13:45 41.38878 21.76894 36228 ft 435 kts 336°
2026-05-01 13:46 41.44584 21.74174 36227 ft 436 kts 336°
2026-05-01 13:46 41.50296 21.71436 36229 ft 436 kts 336°
2026-05-01 13:47 41.55044 21.69165 36234 ft 436 kts 337°
2026-05-01 13:47 41.61681 21.65989 36237 ft 436 kts 337°
2026-05-01 13:48 41.66464 21.63695 36244 ft 436 kts 336°
2026-05-01 13:48 41.72179 21.60950 36247 ft 436 kts 336°
2026-05-01 13:49 41.77898 21.58194 36267 ft 437 kts 337°
2026-05-01 13:49 41.83615 21.55431 36241 ft 437 kts 337°
2026-05-01 13:50 41.89296 21.52686 36243 ft 437 kts 337°
2026-05-01 13:50 41.95017 21.49913 36249 ft 437 kts 337°
2026-05-01 13:51 42.00740 21.47129 36253 ft 437 kts 338°
2026-05-01 13:51 42.06468 21.44345 36256 ft 438 kts 338°
2026-05-01 13:52 42.12195 21.41547 36256 ft 438 kts 338°
2026-05-01 13:52 42.17952 21.38818 36260 ft 439 kts 340°
2026-05-01 13:53 42.23847 21.36594 36272 ft 440 kts 343°
2026-05-01 13:53 42.32747 21.33548 36273 ft 440 kts 343°
2026-05-01 13:54 42.38649 21.31399 36280 ft 440 kts 342°
2026-05-01 13:54 42.44546 21.29194 36290 ft 439 kts 343°
2026-05-01 13:55 42.50441 21.26985 36290 ft 440 kts 343°
2026-05-01 13:55 42.56309 21.24805 36291 ft 440 kts 343°
2026-05-01 13:56 42.62241 21.22602 36298 ft 439 kts 343°
2026-05-01 13:56 42.68093 21.20426 36297 ft 438 kts 342°
2026-05-01 13:57 42.73969 21.18223 36299 ft 437 kts 343°
2026-05-01 13:57 42.79835 21.16022 36289 ft 437 kts 343°
2026-05-01 13:58 42.85702 21.13827 36288 ft 437 kts 343°
2026-05-01 13:58 42.91559 21.11624 36288 ft 436 kts 343°
2026-05-01 13:59 42.97414 21.09414 36291 ft 437 kts 343°
2026-05-01 13:59 43.03264 21.07201 36301 ft 436 kts 343°
2026-05-01 14:00 43.09113 21.04993 36299 ft 435 kts 344°
2026-05-01 14:00 43.14966 21.02892 36304 ft 435 kts 346°
2026-05-01 14:01 43.20880 21.01179 36300 ft 435 kts 347°
2026-05-01 14:01 43.26814 20.99548 36305 ft 435 kts 348°
2026-05-01 14:02 43.32736 20.97835 36294 ft 435 kts 347°
2026-05-01 14:02 43.38651 20.96068 36307 ft 434 kts 347°
2026-05-01 14:03 43.44559 20.94300 36311 ft 434 kts 348°
2026-05-01 14:03 43.50457 20.92535 36309 ft 434 kts 348°
2026-05-01 14:04 43.56333 20.90778 36301 ft 435 kts 348°
2026-05-01 14:04 43.62247 20.89018 36309 ft 435 kts 348°
2026-05-01 14:05 43.68162 20.87242 36294 ft 435 kts 348°
2026-05-01 14:05 43.74081 20.85459 36307 ft 435 kts 348°
2026-05-01 14:06 43.79988 20.83678 36308 ft 434 kts 348°
2026-05-01 14:06 43.85888 20.81906 36316 ft 434 kts 348°
2026-05-01 14:07 43.91791 20.80133 36314 ft 434 kts 348°
2026-05-01 14:08 44.00641 20.77445 36314 ft 434 kts 348°
2026-05-01 14:08 44.06501 20.75658 36309 ft 433 kts 349°
2026-05-01 14:09 44.12415 20.73861 36316 ft 432 kts 349°
2026-05-01 14:09 44.18286 20.72080 36316 ft 431 kts 349°
2026-05-01 14:10 44.24150 20.70290 36312 ft 431 kts 349°
2026-05-01 14:10 44.29967 20.68502 36318 ft 431 kts 349°
2026-05-01 14:11 44.35813 20.66701 36320 ft 430 kts 349°
2026-05-01 14:11 44.44585 20.64005 36308 ft 430 kts 349°
2026-05-01 14:12 44.50424 20.62208 36322 ft 429 kts 349°
2026-05-01 14:12 44.56250 20.60406 36327 ft 428 kts 349°
2026-05-01 14:13 44.61121 20.58895 36323 ft 428 kts 349°
2026-05-01 14:13 44.67885 20.56806 36323 ft 428 kts 350°
2026-05-01 14:14 44.73687 20.55005 36326 ft 427 kts 350°
2026-05-01 14:14 44.79482 20.53184 36304 ft 426 kts 351°
2026-05-01 14:15 44.85264 20.51376 36317 ft 425 kts 351°
2026-05-01 14:15 44.91039 20.49574 36322 ft 425 kts 351°
2026-05-01 14:16 44.96809 20.47765 36321 ft 424 kts 351°
2026-05-01 14:16 45.02574 20.45956 36330 ft 424 kts 351°
2026-05-01 14:17 45.08338 20.44151 36330 ft 424 kts 351°
2026-05-01 14:17 45.14099 20.42333 36329 ft 424 kts 351°
2026-05-01 14:18 45.19850 20.40506 36317 ft 423 kts 351°
2026-05-01 14:18 45.24623 20.38992 36326 ft 422 kts 351°
2026-05-01 14:19 45.31319 20.36873 36331 ft 421 kts 351°
2026-05-01 14:19 45.37033 20.35054 36334 ft 421 kts 352°
2026-05-01 14:20 45.45561 20.32328 36333 ft 420 kts 352°
2026-05-01 14:21 45.51259 20.30515 36335 ft 419 kts 352°
2026-05-01 14:21 45.56951 20.28689 36303 ft 419 kts 352°
2026-05-01 14:22 45.65460 20.25953 36346 ft 416 kts 353°
2026-05-01 14:22 45.71106 20.24137 36352 ft 415 kts 353°
2026-05-01 14:23 45.76742 20.22318 36335 ft 415 kts 353°
2026-05-01 14:23 45.82365 20.20501 36344 ft 413 kts 353°
2026-05-01 14:24 45.87971 20.18684 36350 ft 412 kts 353°
2026-05-01 14:24 45.93558 20.16861 36340 ft 412 kts 353°
2026-05-01 14:25 45.99142 20.15039 36326 ft 411 kts 353°
2026-05-01 14:25 46.04714 20.13230 36332 ft 410 kts 353°
2026-05-01 14:26 46.13050 20.10510 36339 ft 409 kts 353°
2026-05-01 14:27 46.18594 20.08671 36338 ft 409 kts 353°
2026-05-01 14:27 46.24122 20.06660 36457 ft 410 kts 352°
2026-05-01 14:28 46.29629 20.04597 37110 ft 408 kts 351°
2026-05-01 14:28 46.32384 20.03576 37353 ft 409 kts 351°
2026-05-01 14:28 46.35144 20.02559 37593 ft 409 kts 351°
2026-05-01 14:28 46.37875 20.01558 37822 ft 410 kts 351°
2026-05-01 14:29 46.40648 20.00547 38051 ft 411 kts 351°
2026-05-01 14:29 46.43419 19.99535 38267 ft 412 kts 351°
2026-05-01 14:30 46.54557 19.95428 38329 ft 412 kts 351°
2026-05-01 14:31 46.62901 19.92339 38327 ft 412 kts 351°
2026-05-01 14:31 46.68464 19.90275 38317 ft 412 kts 351°
2026-05-01 14:32 46.74027 19.88215 38338 ft 413 kts 351°
2026-05-01 14:32 46.79587 19.86141 38330 ft 412 kts 351°
2026-05-01 14:33 46.85099 19.84078 38339 ft 412 kts 351°
2026-05-01 14:33 46.90658 19.82002 38348 ft 412 kts 351°
2026-05-01 14:34 46.96200 19.79932 38351 ft 411 kts 351°
2026-05-01 14:34 47.00809 19.78206 38353 ft 411 kts 351°
2026-05-01 14:35 47.06355 19.76115 38350 ft 411 kts 351°
2026-05-01 14:35 47.11889 19.74022 38343 ft 411 kts 351°
2026-05-01 14:36 47.17419 19.71933 38328 ft 410 kts 351°
2026-05-01 14:36 47.22941 19.69844 38339 ft 409 kts 351°
2026-05-01 14:37 47.28456 19.67749 38340 ft 409 kts 351°
2026-05-01 14:37 47.33968 19.65660 38344 ft 409 kts 351°
2026-05-01 14:38 47.39472 19.63566 38352 ft 408 kts 351°
2026-05-01 14:38 47.44978 19.61457 38348 ft 408 kts 351°
2026-05-01 14:39 47.50473 19.59346 38342 ft 408 kts 351°
2026-05-01 14:39 47.55966 19.57242 38315 ft 407 kts 351°
2026-05-01 14:40 47.61446 19.55146 38328 ft 407 kts 351°
2026-05-01 14:40 47.66896 19.53047 38332 ft 407 kts 351°
2026-05-01 14:41 47.72369 19.50930 38333 ft 406 kts 351°
2026-05-01 14:41 47.77838 19.48815 38328 ft 406 kts 351°
2026-05-01 14:42 47.83301 19.46697 38329 ft 406 kts 351°
2026-05-01 14:42 47.88763 19.44573 38322 ft 406 kts 351°
2026-05-01 14:43 47.94228 19.42446 38318 ft 406 kts 351°
2026-05-01 14:43 47.99700 19.40318 38302 ft 406 kts 351°
2026-05-01 14:44 48.05166 19.38177 38313 ft 406 kts 351°
2026-05-01 14:44 48.13180 19.33887 38324 ft 412 kts 341°
2026-05-01 14:45 48.21016 19.28558 38326 ft 412 kts 341°
2026-05-01 14:46 48.26233 19.24995 38323 ft 412 kts 341°
2026-05-01 14:46 48.34054 19.19654 38303 ft 411 kts 341°
2026-05-01 14:47 48.39229 19.16110 38307 ft 411 kts 341°
2026-05-01 14:48 48.47055 19.10733 38317 ft 412 kts 341°
2026-05-01 14:48 48.54875 19.05344 38322 ft 412 kts 341°
2026-05-01 14:49 48.65297 18.98133 38286 ft 412 kts 341°
2026-05-01 14:50 48.75749 18.90854 38313 ft 414 kts 341°
2026-05-01 14:51 48.83579 18.85397 38318 ft 414 kts 341°
2026-05-01 14:52 48.91422 18.79905 38327 ft 413 kts 340°
2026-05-01 14:53 48.99247 18.74393 38300 ft 413 kts 340°
2026-05-01 14:53 49.04461 18.70716 38317 ft 413 kts 340°
2026-05-01 14:54 49.09680 18.67034 38321 ft 413 kts 340°
2026-05-01 14:54 49.14891 18.63341 38322 ft 413 kts 340°
2026-05-01 14:55 49.20109 18.59632 38325 ft 413 kts 340°
2026-05-01 14:55 49.25323 18.55924 38358 ft 413 kts 340°
2026-05-01 14:56 49.30536 18.52196 38309 ft 413 kts 340°
2026-05-01 14:56 49.35750 18.48465 38325 ft 414 kts 340°
2026-05-01 14:57 49.40940 18.44755 38333 ft 414 kts 340°
2026-05-01 14:57 49.48752 18.39139 38328 ft 413 kts 340°
2026-05-01 14:58 49.53964 18.35384 38337 ft 413 kts 340°
2026-05-01 14:58 49.59171 18.31623 38343 ft 413 kts 340°
2026-05-01 14:59 49.64375 18.27848 38328 ft 413 kts 339°
2026-05-01 14:59 49.69579 18.24061 38323 ft 414 kts 339°
2026-05-01 15:00 49.77395 18.18377 38334 ft 414 kts 339°
2026-05-01 15:01 49.82607 18.14572 38342 ft 414 kts 339°
2026-05-01 15:01 49.87820 18.10751 38340 ft 414 kts 339°
2026-05-01 15:02 49.93031 18.06927 38327 ft 414 kts 339°
2026-05-01 15:02 49.98242 18.03096 38329 ft 414 kts 339°
2026-05-01 15:03 50.03457 17.99247 38326 ft 414 kts 339°
2026-05-01 15:03 50.08672 17.95435 38332 ft 414 kts 339°
2026-05-01 15:04 50.13893 17.91646 38332 ft 414 kts 339°
2026-05-01 15:04 50.19111 17.87846 38335 ft 414 kts 339°
2026-05-01 15:05 50.24292 17.84062 38336 ft 414 kts 339°
2026-05-01 15:05 50.29503 17.80242 38336 ft 413 kts 339°
2026-05-01 15:06 50.34710 17.76415 38307 ft 413 kts 339°
2026-05-01 15:06 50.39918 17.72569 38318 ft 414 kts 339°
2026-05-01 15:07 50.45127 17.68719 38323 ft 414 kts 339°
2026-05-01 15:07 50.50350 17.64862 38332 ft 414 kts 339°
2026-05-01 15:08 50.55557 17.61006 38338 ft 414 kts 339°
2026-05-01 15:08 50.60730 17.57152 38336 ft 414 kts 339°
2026-05-01 15:09 50.65929 17.53261 38335 ft 414 kts 339°
2026-05-01 15:09 50.71128 17.49360 38312 ft 414 kts 338°
2026-05-01 15:10 50.76328 17.45449 38321 ft 414 kts 338°
2026-05-01 15:10 50.84139 17.39591 38334 ft 414 kts 338°
2026-05-01 15:11 50.91947 17.33697 38341 ft 414 kts 338°
2026-05-01 15:12 50.97146 17.29757 38343 ft 414 kts 338°
2026-05-01 15:12 51.04947 17.23825 38321 ft 414 kts 338°
2026-05-01 15:14 51.17963 17.13899 38335 ft 415 kts 338°
2026-05-01 15:14 51.25767 17.07906 38342 ft 415 kts 338°
2026-05-01 15:15 51.36138 16.99917 38348 ft 415 kts 337°
2026-05-01 15:16 51.46535 16.91858 38336 ft 415 kts 337°
2026-05-01 15:18 51.59546 16.81719 38344 ft 416 kts 337°
2026-05-01 15:19 51.69956 16.73562 38344 ft 416 kts 337°
2026-05-01 15:19 51.77761 16.67408 38328 ft 416 kts 336°
2026-05-01 15:20 51.85573 16.61238 38336 ft 417 kts 336°
2026-05-01 15:21 51.89901 16.57809 38338 ft 417 kts 336°
2026-05-01 15:21 51.95119 16.53661 38341 ft 417 kts 336°
2026-05-01 15:22 52.02935 16.47433 38340 ft 418 kts 336°
2026-05-01 15:22 52.08152 16.43264 38341 ft 418 kts 336°
2026-05-01 15:23 52.13367 16.39085 38318 ft 418 kts 336°
2026-05-01 15:23 52.18581 16.34890 38324 ft 419 kts 336°
2026-05-01 15:24 52.23807 16.30675 38330 ft 419 kts 336°
2026-05-01 15:24 52.29036 16.26444 38334 ft 419 kts 336°
2026-05-01 15:25 52.34268 16.22203 38337 ft 420 kts 336°
2026-05-01 15:25 52.39498 16.17944 38342 ft 420 kts 336°
2026-05-01 15:26 52.44736 16.13674 38337 ft 420 kts 336°
2026-05-01 15:26 52.49965 16.09406 38328 ft 420 kts 335°
2026-05-01 15:27 52.55198 16.05128 38334 ft 420 kts 335°
2026-05-01 15:28 52.63018 15.98707 38342 ft 420 kts 335°
2026-05-01 15:28 52.68248 15.94393 38341 ft 421 kts 335°
2026-05-01 15:29 52.76107 15.87912 38343 ft 421 kts 335°
2026-05-01 15:30 52.86645 15.79403 38328 ft 421 kts 337°
2026-05-01 15:31 53.02745 15.67506 38345 ft 423 kts 337°
2026-05-01 15:32 53.13463 15.59381 38354 ft 423 kts 337°
2026-05-01 15:34 53.29519 15.47145 38346 ft 425 kts 336°